Find Kosmos-763

NORAD ID: 8287 Int'l Des: 1975-086 Owner: GUKOSR Country: SU operational
LEOCIRCULAR

实时位置

正在加载3D地球...

关于 Kosmos-763

正在加载描述...

即将过境

Passes for default location (London). Set your location on the main map for personalized predictions.

高度历史

Loading altitude history...

两行轨道根数

1 08287U 75086C 26104.91605169 .00000010 00000-0 18420-3 0 9990
2 08287 74.0090 312.9074 0023035 194.2262 276.2161 12.43562819295891
Epoch: Apr 14, 2026 • Age: 8 hours

当前状态

高度 1485.2 km
速度 7.13 km/s
星下点 -30.47°S, 155.06°W
类型 other

Most Searched